When you browse on this site, cookies collect data to enhance your experience and personalize the content and advertising you see.
Visit our Privacy Policy to learn more. By continuing to use the site, you agree to this use of cookies and data.
EN

Hourly Weather Ruse

Today, 11 July, Saturday

Time Temperature Precipitation Wind Pressure Humidity
00:00 +19°C° 0 mm 3 mps 758 mmHg 64%
01:00 +19°C° 0 mm 3 mps 758 mmHg 65%
02:00 +18°C° 0 mm 3 mps 758 mmHg 69%
03:00 +18°C° 0 mm 3 mps 758 mmHg 71%
04:00 +17°C° 0 mm 2 mps 758 mmHg 74%
05:00 +17°C° 0 mm 2 mps 757 mmHg 77%
06:00 +19°C° 0 mm 3 mps 758 mmHg 69%
07:00 +21°C° 0 mm 3 mps 758 mmHg 62%
08:00 +25°C° 0 mm 3 mps 758 mmHg 55%
09:00 +27°C° 0 mm 3 mps 758 mmHg 49%
10:00 +28°C° 0 mm 4 mps 757 mmHg 44%
11:00 +30°C° 0 mm 4 mps 757 mmHg 39%
12:00 +32°C° 0 mm 4 mps 757 mmHg 38%
13:00 +33°C° 0 mm 4 mps 756 mmHg 36%
14:00 +33°C° 0 mm 4 mps 756 mmHg 35%
15:00 +33°C° 0 mm 4 mps 756 mmHg 36%
16:00 +33°C° 0 mm 4 mps 755 mmHg 37%
17:00 +33°C° 0 mm 4 mps 755 mmHg 39%
18:00 +30°C° 0 mm 4 mps 755 mmHg 43%
19:00 +27°C° 0 mm 3 mps 755 mmHg 48%
20:00 +25°C° 0 mm 3 mps 755 mmHg 53%
21:00 +24°C° 0 mm 3 mps 755 mmHg 56%
22:00 +22°C° 0 mm 3 mps 755 mmHg 58%
23:00 +21°C° 0 mm 3 mps 755 mmHg 61%

Tomorrow, 12 July, Sunday

Time Temperature Precipitation Wind Pressure Humidity
00:00 +20°C° 0 mm 2 mps 755 mmHg 64%
01:00 +21°C° 0 mm 1 mps 755 mmHg 68%
02:00 +20°C° 0 mm 1 mps 754 mmHg 71%
03:00 +19°C° 0 mm 1 mps 754 mmHg 74%
04:00 +19°C° 0 mm 1 mps 754 mmHg 76%
05:00 +16°C° 0 mm 0 mps 754 mmHg 78%
06:00 +20°C° 0 mm 1 mps 754 mmHg 71%
07:00 +23°C° 0 mm 1 mps 755 mmHg 64%
08:00 +25°C° 0 mm 1 mps 755 mmHg 57%
09:00 +26°C° 0 mm 2 mps 755 mmHg 52%
10:00 +28°C° 0 mm 3 mps 755 mmHg 48%
11:00 +30°C° 0 mm 4 mps 755 mmHg 43%
12:00 +30°C° 0 mm 4 mps 754 mmHg 42%
13:00 +32°C° 0 mm 4 mps 754 mmHg 41%
14:00 +33°C° 0 mm 5 mps 754 mmHg 40%
15:00 +32°C° 0 mm 5 mps 754 mmHg 42%
16:00 +32°C° 0 mm 5 mps 753 mmHg 44%
17:00 +30°C° 0 mm 6 mps 753 mmHg 46%
18:00 +28°C° 0 mm 6 mps 753 mmHg 50%
19:00 +26°C° 0 mm 5 mps 754 mmHg 54%
20:00 +23°C° 0 mm 5 mps 754 mmHg 57%
21:00 +22°C° 0 mm 5 mps 754 mmHg 59%
22:00 +21°C° 0 mm 5 mps 755 mmHg 61%
23:00 +20°C° 0 mm 4 mps 755 mmHg 62%

Day after tomorrow, 13 July, Monday

Time Temperature Precipitation Wind Pressure Humidity
00:00 +19°C° 0 mm 4 mps 755 mmHg 66%
01:00 +18°C° 0 mm 3 mps 755 mmHg 69%
02:00 +17°C° 0 mm 2 mps 755 mmHg 73%
03:00 +17°C° 0 mm 2 mps 756 mmHg 73%
04:00 +17°C° 0 mm 2 mps 756 mmHg 73%
05:00 +17°C° 0 mm 2 mps 756 mmHg 73%
06:00 +17°C° 0.1 mm 2 mps 756 mmHg 75%
07:00 +17°C° 0.1 mm 2 mps 756 mmHg 77%
08:00 +16°C° 0.1 mm 2 mps 756 mmHg 79%
09:00 +16°C° 0.1 mm 2 mps 757 mmHg 76%
10:00 +16°C° 0.1 mm 2 mps 757 mmHg 74%
11:00 +17°C° 0.1 mm 2 mps 757 mmHg 72%
12:00 +17°C° 0 mm 2 mps 757 mmHg 71%
13:00 +17°C° 0 mm 2 mps 757 mmHg 70%
14:00 +17°C° 0 mm 2 mps 757 mmHg 68%
15:00 +18°C° 0 mm 2 mps 756 mmHg 66%
16:00 +19°C° 0 mm 2 mps 756 mmHg 63%
17:00 +21°C° 0 mm 1 mps 756 mmHg 60%
18:00 +20°C° 0 mm 1 mps 756 mmHg 64%
19:00 +19°C° 0 mm 1 mps 756 mmHg 69%
20:00 +18°C° 0 mm 1 mps 756 mmHg 73%
21:00 +16°C° 0 mm 1 mps 756 mmHg 76%
22:00 +15°C° 0 mm 1 mps 757 mmHg 78%
23:00 +15°C° 0 mm 1 mps 757 mmHg 81%

14 July, Tuesday

Time Temperature Precipitation Wind Pressure Humidity
00:00 +15°C° 0 mm 1 mps 757 mmHg 81%
01:00 +14°C° 0 mm 1 mps 757 mmHg 81%
02:00 +14°C° 0 mm 1 mps 757 mmHg 81%
03:00 +14°C° 0 mm 1 mps 757 mmHg 82%
04:00 +14°C° 0 mm 1 mps 757 mmHg 83%
05:00 +13°C° 0 mm 1 mps 757 mmHg 84%
06:00 +16°C° 0 mm 1 mps 757 mmHg 75%
07:00 +18°C° 0 mm 2 mps 757 mmHg 66%
08:00 +20°C° 0 mm 2 mps 757 mmHg 57%
09:00 +23°C° 0 mm 2 mps 757 mmHg 51%
10:00 +25°C° 0 mm 2 mps 757 mmHg 46%
11:00 +26°C° 0 mm 2 mps 757 mmHg 40%
12:00 +27°C° 0 mm 2 mps 756 mmHg 38%
13:00 +27°C° 0 mm 2 mps 756 mmHg 36%
14:00 +28°C° 0 mm 2 mps 756 mmHg 35%
15:00 +28°C° 0 mm 2 mps 755 mmHg 35%
16:00 +28°C° 0 mm 2 mps 755 mmHg 36%
17:00 +28°C° 0 mm 3 mps 755 mmHg 37%
18:00 +26°C° 0 mm 2 mps 755 mmHg 42%
19:00 +24°C° 0 mm 2 mps 755 mmHg 48%
20:00 +21°C° 0 mm 2 mps 756 mmHg 54%
21:00 +20°C° 0 mm 2 mps 756 mmHg 57%
22:00 +19°C° 0 mm 2 mps 756 mmHg 61%
23:00 +18°C° 0 mm 2 mps 756 mmHg 64%

15 July, Wednesday

Time Temperature Precipitation Wind Pressure Humidity
00:00 +17°C° 0 mm 2 mps 756 mmHg 66%
01:00 +17°C° 0 mm 2 mps 756 mmHg 68%
02:00 +16°C° 0 mm 2 mps 756 mmHg 69%
03:00 +16°C° 0 mm 2 mps 756 mmHg 71%
04:00 +16°C° 0 mm 1 mps 756 mmHg 72%
05:00 +15°C° 0 mm 1 mps 756 mmHg 73%
06:00 +19°C° 0 mm 1 mps 756 mmHg 65%
07:00 +20°C° 0 mm 2 mps 756 mmHg 58%
08:00 +24°C° 0 mm 2 mps 756 mmHg 50%
09:00 +25°C° 0 mm 2 mps 756 mmHg 45%
10:00 +27°C° 0 mm 3 mps 756 mmHg 39%
11:00 +29°C° 0 mm 3 mps 756 mmHg 34%
12:00 +29°C° 0 mm 3 mps 756 mmHg 32%
13:00 +30°C° 0 mm 3 mps 755 mmHg 31%
14:00 +31°C° 0 mm 3 mps 755 mmHg 29%
15:00 +31°C° 0 mm 3 mps 755 mmHg 30%
16:00 +31°C° 0 mm 3 mps 754 mmHg 30%
17:00 +30°C° 0 mm 3 mps 754 mmHg 31%
18:00 +28°C° 0 mm 3 mps 754 mmHg 37%
19:00 +26°C° 0 mm 3 mps 754 mmHg 44%
20:00 +24°C° 0 mm 2 mps 754 mmHg 50%
21:00 +23°C° 0 mm 2 mps 754 mmHg 52%
22:00 +23°C° 0 mm 2 mps 755 mmHg 54%
23:00 +21°C° 0 mm 2 mps 755 mmHg 57%

16 July, Thursday

Time Temperature Precipitation Wind Pressure Humidity
00:00 +20°C° 0 mm 2 mps 755 mmHg 59%
01:00 +20°C° 0 mm 2 mps 755 mmHg 61%
02:00 +19°C° 0 mm 2 mps 755 mmHg 64%
03:00 +19°C° 0 mm 2 mps 755 mmHg 66%
04:00 +19°C° 0 mm 1 mps 754 mmHg 68%
05:00 +18°C° 0 mm 1 mps 754 mmHg 69%
06:00 +21°C° 0 mm 1 mps 754 mmHg 63%
07:00 +23°C° 0 mm 1 mps 754 mmHg 57%
08:00 +25°C° 0 mm 1 mps 754 mmHg 50%
09:00 +27°C° 0 mm 1 mps 754 mmHg 45%
10:00 +29°C° 0 mm 1 mps 754 mmHg 39%
11:00 +29°C° 0 mm 0 mps 754 mmHg 34%
12:00 +32°C° 0 mm 1 mps 754 mmHg 32%
13:00 +32°C° 0 mm 1 mps 753 mmHg 30%
14:00 +33°C° 0 mm 1 mps 753 mmHg 28%
15:00 +32°C° 0 mm 1 mps 753 mmHg 29%
16:00 +32°C° 0 mm 1 mps 752 mmHg 29%
17:00 +32°C° 0 mm 1 mps 752 mmHg 29%
18:00 +30°C° 0 mm 1 mps 752 mmHg 35%
19:00 +28°C° 0 mm 1 mps 752 mmHg 41%
20:00 +25°C° 0 mm 2 mps 752 mmHg 47%
21:00 +25°C° 0 mm 2 mps 753 mmHg 50%
22:00 +24°C° 0 mm 2 mps 753 mmHg 52%
23:00 +23°C° 0 mm 2 mps 753 mmHg 55%
Show more